[ ตารางข้อมูล ] [ Min-Max ] [ วันนี้4 ] [ วันนี้2 ] [ เทียบ3วัน A ] [ เทียบ4วัน B ]   

วันนี้2   [ ◀ ช่วงเก่ากว่า ] [ ช่วงที่ 220 ] [ ช่วงใหม่กว่า ▶ ] [ ล่าสุด ]    [ 3 ชั่วโมง ] [ 6 ชั่วโมง ] [ 12 ชั่วโมง ] [ 24 ชั่วโมง ]   วันนี้2

อุณภูมิตู้ Knockdown4529  ราย 3 ชั่วโมง  ที่วัดได้ ในช่วงวันเวลา 08/04/2026 (10:17) ถึง 08/04/2026 (13:17) 
ความชื้นในตู้ Knockdown4529  ราย 3 ชั่วโมง  ที่วัดได้ ในช่วงวันเวลา 08/04/2026 (10:17) ถึง 08/04/2026 (13:17) 

 
DS18B20SHTC3 
IDDate d/m/Y & Timedata1
สูง
data2
ต่ำ
data3
นอก
temp
pcb
hum
pcb
Time
 9951  08/04/2026 13:13:08  35.1  33.3  35.7  34.1  65.2  13:13 
 9950  08/04/2026 13:08:24  35.0  33.3  35.8  34.2  65.2  13:08 
 9949  08/04/2026 13:03:42  35.0  33.2  35.5  34.1  65.0  13:03 
 9948  08/04/2026 12:58:58  34.9  33.2  35.6  34.1  65.2  12:58 
 9947  08/04/2026 12:54:16  34.9  33.2  35.5  34.1  65.1  12:54 
 9946  08/04/2026 12:49:34  34.9  33.1  35.6  34.0  65.1  12:49 
 9945  08/04/2026 12:44:50  34.9  33.1  35.7  34.0  65.0  12:44 
 9944  08/04/2026 12:40:08  34.9  33.1  35.7  33.9  65.0  12:40 
 9943  08/04/2026 12:35:26  34.8  33.0  35.7  34.0  65.0  12:35 
 9942  08/04/2026 12:30:44  34.8  32.9  35.9  34.0  65.1  12:30 
 9941  08/04/2026 12:26:01  34.8  32.9  35.9  33.6  64.8  12:26 
 9940  08/04/2026 12:21:19  34.7  32.8  36.0  33.6  64.8  12:21 
 9939  08/04/2026 12:16:37  34.6  32.8  36.0  33.6  65.0  12:16 
 9938  08/04/2026 12:11:55  34.6  32.8  35.6  33.6  64.9  12:11 
 9937  08/04/2026 12:07:13  34.5  32.7  35.4  33.6  64.9  12:07 
 9936  08/04/2026 12:02:30  34.4  32.6  35.8  33.5  65.0  12:02 
 9935  08/04/2026 11:57:48  34.3  32.6  35.3  33.3  65.0  11:57 
 9934  08/04/2026 11:53:06  34.2  32.5  35.5  33.3  65.0  11:53 
 9933  08/04/2026 11:48:24  34.2  32.4  35.2  33.2  64.9  11:48 
 9932  08/04/2026 11:43:42  34.1  32.4  35.5  33.2  65.0  11:43 
 9931  08/04/2026 11:39:00  34.1  32.3  35.4  33.3  65.0  11:39 
 9930  08/04/2026 11:34:19  34.0  32.2  35.7  33.1  64.9  11:34 
 9929  08/04/2026 11:29:35  33.9  32.2  35.7  33.1  64.9  11:29 
 9928  08/04/2026 11:24:53  33.9  32.1  35.4  32.8  65.0  11:24 

Data every 5 minute.


ใช้เวลาประมวลผล 0.00444 วินาที